Greenville, ME

9:56 AM EST on December 15, 2017 (GMT -0500)
Greenville

Weather History for KGNR - September, 2012

Change the Weather History Date:

Sunday, September 30, 2012

  Actual Average (KMLT) Record (KMLT)
Temperature  
Mean Temperature 52 °F -  
Max Temperature 55 °F 61 °F 84 °F (1922)
Min Temperature 50 °F 40 °F 22 °F (1980)
Degree Days  
Heating Degree Days 13    
Growing Degree Days 2 (Base 50)    
Moisture  
Dew Point 51 °F    
Average Humidity 97    
Maximum Humidity 100    
Minimum Humidity 96    
Precipitation  
Precipitation 1.74 in - - ()
Sea Level Pressure  
Sea Level Pressure 29.78 in    
Wind  
Wind Speed 2 mph (NNW)    
Max Wind Speed 8 mph    
Max Gust Speed -    
Averages and records for this station are not official NWS values.
T = Trace of Precipitation, MM = Missing Value Source: NWS Daily Summary

Daily Weather History Graph

Daily Weather History Graph

Search for Another Location

Airport or City:

Trip Planner

Search our weather history database for the weather conditions in past years. The results will help you decide how hot, cold, wet, or windy it might be!

Date:

Astronomy

Sep. 30, 2012 Rise Set
Actual Time 6:35 AM EDT 6:19 PM EDT
Civil Twilight 6:06 AM EDT 6:49 PM EDT
Nautical Twilight 5:31 AM EDT 7:23 PM EDT
Astronomical Twilight 4:56 AM EDT 7:58 PM EDT
Moon 6:16 PM EDT (9/30) 7:07 AM EDT (9/30)
Length of Visible Light 12h 42m
Length of Day
11h 43m
Full, 100% of the Moon is Illuminated
Sep 30
Full
Oct 8
Last Quarter
Oct 15
New
Oct 21
First Quarter
Oct 29
Full

Hourly Weather History & Observations

Time (EDT) Temp. Dew Point Humidity Pressure Visibility Wind Dir Wind Speed Gust Speed Precip Events Conditions
12:56 AM 50.0 °F 48.9 °F 96% 29.96 in - Calm Calm - N/A   Unknown
1:56 AM 50.0 °F 48.9 °F 96% 29.95 in - North 3.5 mph - N/A   Unknown
2:56 AM 50.0 °F 48.9 °F 96% 29.95 in - North 4.6 mph - N/A   Unknown
3:56 AM 50.0 °F 48.9 °F 96% 29.92 in - North 8.1 mph - N/A   Unknown
4:56 AM 50.0 °F 48.9 °F 96% 29.93 in - Calm Calm - N/A   Unknown
5:56 AM 50.0 °F 48.9 °F 96% 29.94 in - Calm Calm - N/A   Unknown
6:56 AM 50.0 °F 50.0 °F 100% 29.91 in - NNW 3.5 mph - N/A   Unknown
7:56 AM 51.1 °F 50.0 °F 96% 29.91 in - Calm Calm - N/A   Unknown
8:56 AM 52.0 °F 51.1 °F 97% 29.91 in - Variable 3.5 mph - N/A   Unknown
9:56 AM 52.0 °F 51.1 °F 97% 29.91 in - Variable 3.5 mph - 0.03 in   Unknown
10:56 AM 53.1 °F 52.0 °F 96% 29.88 in - NNE 4.6 mph - 0.07 in   Unknown
11:56 AM 53.1 °F 52.0 °F 96% 29.85 in - NNW 4.6 mph - 0.12 in   Unknown
12:56 PM 53.1 °F 52.0 °F 96% 29.81 in - Calm Calm - 0.36 in   Unknown
1:56 PM 53.1 °F 52.0 °F 96% 29.76 in - Variable 3.5 mph - 0.18 in   Unknown
2:56 PM 53.1 °F 53.1 °F 100% 29.74 in - NW 4.6 mph - 0.25 in   Unknown
3:56 PM 54.0 °F 53.1 °F 97% 29.68 in - NW 4.6 mph - 0.23 in   Unknown
4:56 PM 54.0 °F 54.0 °F 100% 29.62 in - NW 4.6 mph - 0.12 in   Unknown
5:56 PM 54.0 °F 54.0 °F 100% 29.58 in - Calm Calm - 0.06 in   Unknown
6:56 PM 54.0 °F 54.0 °F 100% 29.58 in - Calm Calm - 0.14 in   Unknown
7:56 PM 53.1 °F 53.1 °F 100% 29.57 in - Calm Calm - 0.17 in   Unknown
8:56 PM 52.0 °F 51.1 °F 97% 29.57 in - South 3.5 mph - 0.01 in   Unknown
9:56 PM 52.0 °F 51.1 °F 97% 29.58 in - Calm Calm - N/A   Unknown
10:56 PM 52.0 °F 51.1 °F 97% 29.57 in - South 4.6 mph - N/A   Unknown
11:56 PM 52.0 °F 52.0 °F 100% 29.57 in - Calm Calm - N/A   Unknown